Home > Weather > Gibraltar > Past weeks

Flag for Gibraltar Past Weather in Gibraltar, Gibraltar — Yesterday and Last 2 Weeks

Now
75 °F

Clear.


Feels Like: 76 °F
Forecast: 73 / 86 °F
Wind: 13 mph from East

Location: Gibraltar Airport

Current Time: Jul 26, 2016 at 4:45:04 AM

Latest Report: Jul 26, 2016 at 3:50 AM


Visibility: N/A

Pressure: 30.04 "Hg

Humidity: 78%

Dew Point: 68 °F

Location of GibraltarLocation

Past Weather in Gibraltar — Graph

°F

Gibraltar Temperature Yesterday

Maximum temperature yesterday: 81 °F (at 3:50 PM)
Minimum temperature yesterday: 73 °F (at 5:50 AM)
Average temperature yesterday: 76 °F

High & Low Weather Summary for the Past Weeks

 TemperatureHumidityPressure
High91 °F (Jul 21, 4:50 PM)94% (Jul 13, 9:50 PM)30.12 "Hg (Jul 13, 9:50 PM)
Low72 °F (Jul 11, 5:50 AM)30% (Jul 13, 1:50 AM)29.89 "Hg (Jul 11, 6:50 PM)
Average77 °F74%30.02 "Hg
* Reported Jul 11 2:50 AM — Jul 26 2:50 AM, Gibraltar, Weather by CustomWeather, © 2016

Note: Actual official high and low records may vary slightly from our data, if they occured in-between our weather recording intervals... More about our weather records

Advertising

Gibraltar Weather History for the Previous 24 Hours

Scroll right to see more
 ConditionsComfort  
Time TempWeatherWind HumidityBarometerVisibility
2:50 AM
Tue, Jul 26
75 °FClear.13 mph83%30.07 "HgN/A
1:50 AM75 °FClear.16 mph83%30.07 "HgN/A
12:50 AM75 °FPassing clouds.12 mph89%30.07 "HgN/A
11:50 PM
Mon, Jul 25
75 °FOvercast.12 mph89%30.07 "HgN/A
10:50 PM75 °FPassing clouds.14 mph89%30.07 "HgN/A
9:50 PM75 °FScattered clouds.12 mph89%30.04 "HgN/A
8:50 PM75 °FPassing clouds.15 mph89%30.04 "HgN/A
7:50 PM77 °FPassing clouds.13 mph79%30.04 "HgN/A
6:50 PM79 °FPassing clouds.14 mph74%30.04 "HgN/A
5:50 PM79 °FPassing clouds.14 mph74%30.04 "HgN/A
4:50 PM79 °FPassing clouds.15 mph70%30.04 "HgN/A
3:50 PM81 °FPassing clouds.14 mph66%30.07 "HgN/A
2:50 PM79 °FPassing clouds.16 mph70%30.07 "HgN/A
1:50 PM79 °FPassing clouds.16 mph70%30.07 "HgN/A
12:50 PM79 °FPassing clouds.16 mph70%30.09 "HgN/A
11:50 AM77 °FPassing clouds.16 mph74%30.07 "HgN/A
10:50 AM77 °FPassing clouds.16 mph74%30.07 "HgN/A
9:50 AM75 °FPassing clouds.16 mph78%30.07 "HgN/A
8:50 AM75 °FPassing clouds.21 mph83%30.07 "HgN/A
7:50 AM73 °FPassing clouds.15 mph89%30.04 "HgN/A
6:50 AM73 °FPassing clouds.15 mph89%30.04 "HgN/A
5:50 AM73 °FClear.17 mph89%30.04 "HgN/A
4:50 AM75 °FClear.20 mph83%30.04 "HgN/A
Weather by CustomWeather, © 2016

See weather overviewHow to use our weather pages